Location: Casone le Fosse
(44.6547°N, 12.1103°E)
Time: 03:51:54
(UTC+00:00)

Meteor 2-10 Rocket - Pass Details

Date: 29 October 2020
Orbit: 734 x 885 km, 81.2° (Epoch: 01 December)

Event Time Altitude Azimuth Distance (km) Brightness Sun altitude
Rises 17:47:33 0° 193° (SSW) 3,301 7.0 -18.9°
Reaches altitude 10° 17:49:59 10° 195° (SSW) 2,352 6.2 -19.3°
Maximum altitude 17:55:15 75° 281° (W) 800 3.7 -20.3°
Drops below altitude 10° 18:00:23 10° 7° (N) 2,283 5.9 -21.2°
Sets 18:02:42 0° 10° (N) 3,198 6.6 -21.6°
